Dallas Redbird, TX

12:09 AM CDT on September 21, 2017 (GMT -0500)
Redbird

Weather History for KRBD - November, 2012

Change the Weather History Date:

Friday, November 2, 2012

  Actual Average Record
Temperature  
Mean Temperature 78 °F -  
Max Temperature 87 °F 67 °F 87 °F (2012)
Min Temperature 68 °F 50 °F 39 °F (1999)
Cooling Degree Days 12    
Growing Degree Days 28 (Base 50)    
Moisture  
Dew Point 52 °F    
Average Humidity 45    
Maximum Humidity 68    
Minimum Humidity 24    
Precipitation  
Precipitation 0.00 in - - ()
Sea Level Pressure  
Sea Level Pressure 29.93 in    
Wind  
Wind Speed 7 mph (SSW)    
Max Wind Speed 9 mph    
Max Gust Speed 17 mph    
Visibility 10 miles    
Events      
Averages and records for this station are not official NWS values.
T = Trace of Precipitation, MM = Missing Value Source: NWS Daily Summary

Daily Weather History Graph

Daily Weather History Graph

Search for Another Location

Airport or City:

Trip Planner

Search our weather history database for the weather conditions in past years. The results will help you decide how hot, cold, wet, or windy it might be!

Date:

Astronomy

Nov. 02, 2012 Rise Set
Actual Time 7:46 AM CDT 6:35 PM CDT
Civil Twilight 7:20 AM CDT 7:00 PM CDT
Nautical Twilight 6:51 AM CDT 7:29 PM CDT
Astronomical Twilight 6:22 AM CDT 7:58 PM CDT
Moon 9:29 PM CDT (11/2) 11:01 AM CDT (11/2)
Length of Visible Light 11h 39m
Length of Day
10h 48m
Waning Gibbous, 87% of the Moon is Illuminated
Nov 2
Waning Gibbous
Nov 6
Last Quarter
Nov 13
New
Nov 20
First Quarter
Nov 28
Full

Hourly Weather History & Observations

Time (CDT) Temp. Heat Index Dew Point Humidity Pressure Visibility Wind Dir Wind Speed Gust Speed Precip Events Conditions
12:53 AM 73.9 °F - 51.1 °F 45% 29.93 in 10.0 mi SW 5.8 mph - N/A   Clear
1:53 AM 73.0 °F - 50.0 °F 44% 29.92 in 10.0 mi SW 8.1 mph - N/A   Clear
2:53 AM 73.0 °F - 50.0 °F 44% 29.92 in 10.0 mi SW 6.9 mph - N/A   Clear
3:53 AM 71.1 °F - 48.9 °F 45% 29.92 in 10.0 mi Variable 5.8 mph - N/A   Clear
4:53 AM 69.1 °F - 50.0 °F 51% 29.92 in 10.0 mi SW 5.8 mph - N/A   Clear
5:53 AM 69.1 °F - 52.0 °F 54% 29.93 in 10.0 mi SW 8.1 mph - N/A   Clear
6:53 AM 69.1 °F - 55.0 °F 61% 29.94 in 10.0 mi SW 8.1 mph - N/A   Clear
7:53 AM 68.0 °F - 57.0 °F 68% 29.95 in 10.0 mi Variable 6.9 mph - N/A   Clear
8:53 AM 69.1 °F - 57.0 °F 65% 29.97 in 10.0 mi Variable 6.9 mph - N/A   Clear
9:53 AM 73.0 °F - 57.0 °F 57% 29.98 in 10.0 mi SW 9.2 mph - N/A   Clear
10:53 AM 78.1 °F - 57.0 °F 48% 29.98 in 10.0 mi SW 6.9 mph 16.1 mph N/A   Clear
11:53 AM 82.0 °F 81.6 °F 55.9 °F 41% 29.99 in 10.0 mi SSW 9.2 mph 17.3 mph N/A   Clear
12:53 PM 86.0 °F - 52.0 °F 31% 29.96 in 10.0 mi Variable 6.9 mph - N/A   Clear
1:53 PM 86.0 °F - 51.1 °F 30% 29.92 in 10.0 mi SSW 9.2 mph - N/A   Clear
2:53 PM 87.1 °F - 48.0 °F 26% 29.90 in 10.0 mi Variable 6.9 mph 16.1 mph N/A   Clear
3:53 PM 86.0 °F - 48.0 °F 27% 29.89 in 10.0 mi South 8.1 mph - N/A   Clear
4:53 PM 86.0 °F - 45.0 °F 24% 29.88 in 10.0 mi Variable 5.8 mph - N/A   Clear
5:53 PM 84.0 °F - 44.1 °F 25% 29.88 in 10.0 mi South 8.1 mph - N/A   Clear
6:53 PM 79.0 °F - 46.9 °F 32% 29.89 in 10.0 mi SSE 6.9 mph - N/A   Clear
7:53 PM 77.0 °F - 51.1 °F 40% 29.90 in 10.0 mi SSE 8.1 mph - N/A   Clear
8:53 PM 75.0 °F - 53.1 °F 46% 29.91 in 10.0 mi SSE 8.1 mph - N/A   Clear
9:53 PM 73.0 °F - 55.0 °F 53% 29.93 in 10.0 mi South 6.9 mph - N/A   Clear
10:53 PM 72.0 °F - 55.9 °F 57% 29.94 in 10.0 mi South 8.1 mph - N/A   Clear
11:53 PM 71.1 °F - 55.9 °F 59% 29.94 in 10.0 mi South 5.8 mph - N/A   Clear